TIMED

Last updated on Thu Dec 18 2025 00:02:41 GMT+0000 (Coordinated Universal Time)

1 26998U 01055B 25351.19546738 .00001344 00000+0 12744-3 0 9996 2 26998 74.0677 241.3075 0000836 212.6869 147.4264 14.94705384303627
UTC large
Height (km)
Speed (km/s)
/
Latitude / Longitude
Inclination (degrees)
Orbital Period (minutes)
Azimuth
Elevation
Range (km)
Doppler Factor

Next 0 passes for location: London (51.5072 / 0.1276)

Sorry there are no passes over London.